Tracking 23731 objects as of 26-Sep-2021
HD Live streaming from Space Station
objects crossing your sky now

STARLINK-2648

Track STARLINK-2648 now!
10-day predictions
STARLINK-2648 is classified as:


NORAD ID: 48679
Int'l Code: 2021-044AT
Perigee: 553.3 km
Apogee: 555.4 km
Inclination: 53.1 °
Period: 95.6 minutes
Semi major axis: 6925 km
RCS: Unknown
Launch date: May 26, 2021
Source: United States (US)
Launch site: AIR FORCE EASTERN TEST RANGE (AFETR)
aabbcc
Your satellite tracking list
Your tracking list is empty




NASA's NSSDC Master Catalog

Two Line Element Set (TLE):
1 48679U 21044AT  21268.56575096  .00000113  00000-0  26454-4 0  9997
2 48679  53.0560 211.5562 0001507  63.2097 296.9046 15.06396208 18754
Source of the keplerian elements: AFSPC